Location: Asheville, NC
(35.6000°N, 82.5500°W)
Time: 01:32:01
(UTC-05:00)

KAITUO 1B - Pass Details

Date: 15 February 2018
Orbit: 499 x 522 km, 97.5° (Epoch: 21 February)

Event Time Altitude Azimuth Distance (km) Brightness Sun altitude
Rises 05:59:25 0° 29° (NNE) 2,600 ? -16.4°
Reaches altitude 10° 06:01:56 10° 47° (NE) 1,715 ? -15.8°
Maximum altitude 06:04:41 20° 95° (E) 1,221 ? -15.3°
Drops below altitude 10° 06:07:26 10° 144° (SE) 1,714 ? -14.7°
Sets 06:09:56 0° 162° (SSE) 2,599 ? -14.2°
